DW3384 Weather Reports


time (UTC)temp
F
wind
direction
speed
knots
gust
knots
rain 1hr
in
rain 24hr
in
rain mn
in
humidity
%
barometer
mb
20260901131550 76 227 2.6 10.4 0.00 0.00 0.00 54 1008.4
20260901130043 75 129 1.7 8.7 0.00 0.00 0.00 55 1008.1
20260901124542 74 151 2.6 6.1 0.00 0.00 0.00 56 1008.0
20260901123044 74 185 2.6 7.0 0.00 0.00 0.00 57 1007.8
20260901121543 73 140 2.6 5.2 0.00 0.00 0.00 57 1007.7
20260901120043 73 92 2.6 5.2 0.00 0.00 0.00 57 1007.6
20260901114542 73 146 1.7 7.8 0.00 0.00 0.00 57 1007.5
20260901113034 74 67 1.7 4.3 0.00 0.00 0.00 56 1007.4
20260901111532 74 107 0.9 4.3 0.00 0.00 0.00 55 1007.4
20260901110034 76 192 1.7 7.8 0.00 0.00 0.00 52 1007.4
20260901104533 75 164 1.7 5.2 0.00 0.00 0.00 53 1007.4
20260901103028 74 195 0.9 4.3 0.00 0.00 0.00 54 1007.3
20260901101526 75 360 1.7 2.6 0.00 0.00 0.00 52 1007.3
20260901100023 77 189 2.6 8.7 0.00 0.00 0.00 50 1007.2
20260901094527 76 125 4.3 7.8 0.00 0.00 0.00 51 1007.1
20260901093021 75 191 2.6 8.7 0.00 0.00 0.00 52 1007.1
20260901091523 75 198 4.3 9.6 0.00 0.00 0.00 52 1006.9
20260901090020 76 132 4.3 9.6 0.00 0.00 0.00 51 1006.9
20260901084518 75 184 4.3 10.4 0.00 0.00 0.00 52 1006.9
20260901083023 75 158 2.6 8.7 0.00 0.00 0.00 52 1007.0
20260901081517 76 175 3.5 9.6 0.00 0.00 0.00 52 1006.9
20260901080013 76 189 2.6 8.7 0.00 0.00 0.00 51 1006.8
20260901074510 77 159 5.2 12.2 0.00 0.00 0.00 50 1006.7
20260901073007 78 178 6.1 15.6 0.00 0.00 0.00 49 1006.6
20260901071506 78 180 6.1 12.2 0.00 0.00 0.00 49 1006.7
20260901070002 78 183 6.1 12.2 0.00 0.00 0.00 49 1006.8
20260901064601 78 145 7.0 11.3 0.00 0.00 0.00 48 1006.8
20260901064501 78 130 6.1 11.3 0.00 0.00 0.00 48 1006.8
20260901063058 79 160 7.0 13.0 0.00 0.00 0.00 48 1006.9
20260901061558 80 173 7.0 13.9 0.00 0.00 0.00 47 1006.8
20260901060053 80 171 7.8 14.8 0.00 0.00 0.00 47 1006.9
20260901054554 80 144 8.7 13.9 0.00 0.00 0.00 47 1006.9
20260901053051 80 166 7.8 15.6 0.00 0.00 0.00 47 1006.7
20260901051545 81 117 6.1 12.2 0.00 0.00 0.00 46 1006.7
20260901050042 82 137 5.2 12.2 0.00 0.00 0.00 45 1006.6
20260901044546 82 126 6.1 12.2 0.00 0.00 0.00 45 1006.7
20260901043042 82 182 5.2 13.0 0.00 0.00 0.00 45 1006.6
20260901041555 83 167 6.1 12.2 0.00 0.00 0.00 45 1006.6
20260901040040 83 183 5.2 11.3 0.00 0.00 0.00 44 1006.5
20260901034540 83 211 4.3 13.9 0.00 0.00 0.00 44 1006.3
20260901033039 84 154 4.3 10.4 0.00 0.00 0.00 44 1006.2
20260901031540 84 187 4.3 10.4 0.00 0.00 0.00 44 1005.8
20260901030039 84 155 4.3 9.6 0.00 0.00 0.00 44 1005.5
20260901024537 85 166 3.5 9.6 0.00 0.00 0.00 44 1005.3
20260901023043 85 159 3.5 8.7 0.00 0.00 0.00 43 1004.9
20260901021537 86 136 3.5 8.7 0.00 0.00 0.00 42 1004.7
20260901020036 87 149 3.5 7.8 0.00 0.00 0.00 41 1004.4
20260901014536 87 132 4.3 9.6 0.00 0.00 0.00 40 1004.3
20260901013035 88 134 4.3 7.8 0.00 0.00 0.00 38 1004.1
20260901011536 89 134 4.3 7.8 0.00 0.00 0.00 35 1004.0
20260901010033 91 127 3.5 7.0 0.00 0.00 0.00 34 1003.9
20260901004534 92 103 4.3 12.2 0.00 0.00 0.00 32 1003.8
20260901003032 93 139 4.3 10.4 0.00 0.00 0.00 32 1003.8
20260901001531 94 186 6.1 13.9 0.00 0.00 0.00 31 1003.6
20260901000034 94 127 7.0 13.9 0.00 0.00 0.00 30 1003.6
20260831234534 95 123 6.1 11.3 0.00 0.00 0.00 30 1003.6
20260831233030 95 163 7.8 16.5 0.00 0.00 0.00 31 1003.6
20260831231539 96 169 6.1 13.0 0.00 0.00 0.00 31 1003.6
20260831230038 96 166 5.2 13.9 0.00 0.00 0.00 30 1003.6
20260831224528 96 157 6.1 15.6 0.00 0.00 0.00 30 1003.6
20260831223028 97 167 6.1 13.0 0.00 0.00 0.00 29 1003.6
20260831221531 97 129 5.2 11.3 0.00 0.00 0.00 28 1003.6
20260831220027 97 152 2.6 7.8 0.00 0.00 0.00 28 1003.7
20260831214528 97 167 5.2 10.4 0.00 0.00 0.00 28 1003.9
20260831213025 97 198 4.3 12.2 0.00 0.00 0.00 29 1004.0
20260831211531 97 165 5.2 13.0 0.00 0.00 0.00 29 1004.1
20260831210023 98 176 4.3 8.7 0.00 0.00 0.00 30 1004.2
20260831204523 98 138 4.3 12.2 0.00 0.00 0.00 31 1004.5
20260831203027 98 168 4.3 13.9 0.00 0.00 0.00 30 1004.6
20260831201520 97 29 6.1 14.8 0.00 0.00 0.00 30 1004.7
20260831200023 97 163 7.8 13.0 0.00 0.00 0.00 31 1004.9
20260831194517 98 163 5.2 13.9 0.00 0.00 0.00 29 1004.9
20260831193018 97 217 6.1 12.2 0.00 0.00 0.00 31 1005.0
20260831191512 97 180 4.3 11.3 0.00 0.00 0.00 32 1005.2
20260831190011 97 224 4.3 10.4 0.00 0.00 0.00 31 1005.4
20260831184507 96 240 4.3 9.6 0.00 0.00 0.00 33 1005.5
20260831183006 95 196 6.1 11.3 0.00 0.00 0.00 34 1005.7
20260831181505 95 221 4.3 9.6 0.00 0.00 0.00 35 1005.9
20260831180002 94 202 6.1 11.3 0.00 0.00 0.00 36 1006.0
20260831174558 93 130 6.1 10.4 0.00 0.00 0.00 37 1006.3
20260831173057 93 196 6.1 12.2 0.00 0.00 0.00 38 1006.3
20260831171554 92 242 6.1 10.4 0.00 0.00 0.00 38 1006.3
20260831170050 91 209 4.3 14.8 0.00 0.00 0.00 40 1006.5
20260831164547 90 219 6.1 13.9 0.00 0.00 0.00 40 1006.7
20260831163045 90 212 6.1 11.3 0.00 0.00 0.00 40 1006.7
20260831161542 89 252 5.2 10.4 0.00 0.00 0.00 40 1006.7
20260831160041 88 245 4.3 13.0 0.00 0.00 0.00 43 1006.6
20260831154538 87 240 6.1 14.8 0.00 0.00 0.00 43 1006.6
20260831153031 86 197 3.5 12.2 0.00 0.00 0.00 45 1006.6
20260831151528 85 175 4.3 10.4 0.00 0.00 0.00 45 1006.5
20260831150027 84 188 4.3 13.0 0.00 0.00 0.00 47 1006.5
20260831144525 82 188 6.1 15.6 0.00 0.00 0.00 48 1006.6
20260831143025 81 198 5.2 13.9 0.00 0.00 0.00 50 1006.8
20260831141525 79 211 4.3 7.8 0.00 0.00 0.00 53 1007.0
20260831140023 78 225 1.7 7.0 0.00 0.00 0.00 56 1007.1
20260831134523 76 232 2.6 6.1 0.00 0.00 0.00 58 1007.1
20260831133021 75 218 0.9 5.2 0.00 0.00 0.00 59 1006.8